Commit Graph

1159 Commits

Author SHA1 Message Date
jeffvli 5e12a666e3 optimize query builder 2025-11-29 19:33:41 -08:00
jeffvli bb1705a774 redesign smart playlist, add multisort 2025-11-29 19:33:41 -08:00
jeffvli 974e96c7b4 fix playlist count badge loader 2025-11-29 19:33:41 -08:00
jeffvli e69d0c8922 add popver playqueue 2025-11-29 19:33:41 -08:00
jeffvli 5e8d17f144 increase popover default padding 2025-11-29 19:33:41 -08:00
jeffvli 774495262e add infinite loader for feature carousel 2025-11-29 19:33:41 -08:00
jeffvli a708162b15 adjust feature carousel design 2025-11-29 19:33:41 -08:00
jeffvli 93ba99e36f redesign PlayButtonGroup to match card styles 2025-11-29 19:33:41 -08:00
jeffvli a99a02c94c adjust default modal styles 2025-11-29 19:33:41 -08:00
jeffvli 998eb02621 add album artist, year to album header 2025-11-29 19:33:40 -08:00
jeffvli a18d2ee305 update album artist page 2025-11-29 19:33:40 -08:00
jeffvli 72e2e6daca update fields and add multiselect to smart playlist sort 2025-11-29 19:33:40 -08:00
jeffvli 9b17d3513a handle context menu on playlist songs 2025-11-29 19:33:40 -08:00
jeffvli 06d0c715af reimplement smart playlists 2025-11-29 19:33:40 -08:00
jeffvli 9d3c44ef15 increase stack gap on home page 2025-11-29 19:33:40 -08:00
jeffvli 8f06b177b5 redesign featured genres 2025-11-29 19:33:40 -08:00
jeffvli 9e1cdcc93e remove max width from list pages 2025-11-29 19:33:40 -08:00
jeffvli 2101b2e1c7 fix sidebar image animate out 2025-11-29 19:33:40 -08:00
jeffvli 4fc036f4ea add context menu selection preview 2025-11-29 19:33:40 -08:00
jeffvli b7c413c96a increase library headerbar title size 2025-11-29 19:33:40 -08:00
jeffvli 5d0124369e fix internalState on expanded album item 2025-11-29 19:33:40 -08:00
jeffvli 3f8a3a5e03 fix override query behavior on list pages 2025-11-29 19:33:40 -08:00
jeffvli 60d8d18a0f add mediasession 2025-11-29 19:33:40 -08:00
jeffvli 212d9e9f55 add mpris 2025-11-29 19:33:40 -08:00
jeffvli f0c35be21f add logs to discord rpc events 2025-11-29 19:33:40 -08:00
jeffvli 2f32534cf9 add logs to scrobble events 2025-11-29 19:33:40 -08:00
jeffvli 0927ff0e5e temp 2025-11-29 19:33:40 -08:00
jeffvli 4ef2956eb1 add delete hotkey to playqueue 2025-11-29 19:33:40 -08:00
jeffvli a893b063de fix genre route link on album badges 2025-11-29 19:33:40 -08:00
jeffvli 092a9c3f19 add initial playlist reimplementation 2025-11-29 19:33:40 -08:00
jeffvli ac5de29c71 reimplement artist discog / tracks routes 2025-11-29 19:33:39 -08:00
jeffvli 6b307b3bd4 properly handle adding list queries from song list to queue 2025-11-29 19:33:39 -08:00
jeffvli 9e0c4d4b2a add additional checks on wavesurfer to prevent playback 2025-11-29 19:33:39 -08:00
jeffvli d66b1c1bbb add error handler to web player 2025-11-29 19:33:39 -08:00
jeffvli 3a2c5f7b11 handle cleaner switch between mpv/web 2025-11-29 19:33:39 -08:00
jeffvli 10c9bec2cf disable fullscreen from settings modal 2025-11-29 19:33:39 -08:00
jeffvli ffa9d165f2 refactor shuffle all modal for styles and loading state 2025-11-29 19:33:39 -08:00
jeffvli 2c9ea6d19c refactor play button for reusability 2025-11-29 19:33:39 -08:00
jeffvli 60cdea6787 large performance refactor 2025-11-29 19:33:39 -08:00
jeffvli 94a7829882 add debug logs for player actions 2025-11-29 19:33:39 -08:00
jeffvli 778d878349 add umami analytics integration 2025-11-29 19:33:39 -08:00
jeffvli 042047d7c1 clean up player repeat behavior 2025-11-29 19:33:39 -08:00
jeffvli 2264fa0d29 extract play button from item card and add long press animation 2025-11-29 19:33:39 -08:00
jeffvli 8ad5e26c2f move remote settings to window tab 2025-11-29 19:33:39 -08:00
jeffvli 359e442947 optimize excessive layout re-rendering due to react-router 2025-11-29 19:33:39 -08:00
jeffvli 8d72596a33 attempt to fix playqueue initial height issue 2025-11-29 19:33:39 -08:00
jeffvli e78a46ab24 optimize list refresh functions 2025-11-29 19:33:38 -08:00
jeffvli d3132ad570 reimplement genre detail route 2025-11-29 19:33:38 -08:00
jeffvli 1b8afe3134 add image unloader to sidebar image when no image available 2025-11-29 19:33:38 -08:00
jeffvli a4f53e5273 add better type safety for favorite/rating update 2025-11-29 19:33:38 -08:00